CFC1 CYYJ-CYYC

Flight info

Callsign CFC1
Flight time N/A
Altitude 17000
Route SQURL DCT CILLI Q983 NORET VESGA6
Aircraft PA34/L-SBDFGRY/S

Departure

Time 2026-05-03 21:25
Airport Victoria International Airport (CYYJ)

Arrival

Time N/A
Airport Calgary International Airport (CYYC)
Time Latitude Longitude Altitude Speed Heading
2026-05-03 21:16 48.64605 -123.42190 51 ft 0 kts 103°
2026-05-03 21:21 48.64617 -123.42189 51 ft 5 kts 293°
2026-05-03 21:21 48.64645 -123.42224 51 ft 9 kts 343°
2026-05-03 21:21 48.64698 -123.42171 51 ft 10 kts 32°
2026-05-03 21:21 48.64739 -123.42236 51 ft 11 kts 287°
2026-05-03 21:22 48.64766 -123.42374 51 ft 17 kts 287°
2026-05-03 21:22 48.64799 -123.42547 50 ft 17 kts 285°
2026-05-03 21:22 48.64833 -123.42724 50 ft 18 kts 287°
2026-05-03 21:22 48.64870 -123.42919 51 ft 19 kts 286°
2026-05-03 21:23 48.64908 -123.43114 51 ft 22 kts 286°
2026-05-03 21:23 48.64954 -123.43358 49 ft 25 kts 286°
2026-05-03 21:23 48.65000 -123.43604 49 ft 24 kts 286°
2026-05-03 21:23 48.65041 -123.43817 48 ft 11 kts 283°
2026-05-03 21:24 48.65053 -123.43852 48 ft 0 kts 325°
2026-05-03 21:24 48.65086 -123.43883 48 ft 13 kts 330°
2026-05-03 21:24 48.65171 -123.43887 47 ft 14 kts 82°
2026-05-03 21:24 48.65104 -123.43510 49 ft 73 kts 106°
2026-05-03 21:25 48.64907 -123.42547 172 ft 110 kts 104°
2026-05-03 21:25 48.64647 -123.41321 367 ft 132 kts 105°
2026-05-03 21:25 48.64352 -123.39969 761 ft 137 kts 106°
2026-05-03 21:25 48.64055 -123.38611 1258 ft 133 kts 105°
2026-05-03 21:26 48.63766 -123.37321 1740 ft 127 kts 105°
2026-05-03 21:26 48.63488 -123.36083 2219 ft 122 kts 105°
2026-05-03 21:26 48.63223 -123.34921 2735 ft 113 kts 104°
2026-05-03 21:26 48.62976 -123.33839 3205 ft 104 kts 107°
2026-05-03 21:27 48.62851 -123.32807 3614 ft 97 kts 72°
2026-05-03 21:27 48.63230 -123.31992 3926 ft 99 kts 52°
2026-05-03 21:27 48.63638 -123.31078 4184 ft 112 kts 54°
2026-05-03 21:27 48.64099 -123.30048 4465 ft 123 kts 56°
2026-05-03 21:28 48.64573 -123.28948 4806 ft 126 kts 57°
2026-05-03 21:28 48.65054 -123.27816 5134 ft 129 kts 57°
2026-05-03 21:28 48.65543 -123.26659 5461 ft 132 kts 57°
2026-05-03 21:28 48.66040 -123.25480 5789 ft 134 kts 57°
2026-05-03 21:29 48.66541 -123.24289 6119 ft 135 kts 58°
2026-05-03 21:29 48.67038 -123.23108 6440 ft 134 kts 58°
2026-05-03 21:29 48.67538 -123.21918 6756 ft 132 kts 58°
2026-05-03 21:29 48.68023 -123.20764 7111 ft 128 kts 58°
2026-05-03 21:30 48.68494 -123.19645 7462 ft 124 kts 57°
2026-05-03 21:30 48.68953 -123.18551 7778 ft 123 kts 57°
2026-05-03 21:30 48.69408 -123.17469 8092 ft 121 kts 57°
2026-05-03 21:30 48.69851 -123.16409 8414 ft 118 kts 57°
2026-05-03 21:31 48.70284 -123.15379 8732 ft 114 kts 57°
2026-05-03 21:31 48.70695 -123.14397 9037 ft 107 kts 57°
2026-05-03 21:31 48.71085 -123.13466 9272 ft 104 kts 58°
2026-05-03 21:31 48.71468 -123.12576 9512 ft 100 kts 56°
2026-05-03 21:32 48.71839 -123.11710 9758 ft 94 kts 62°
2026-05-03 21:32 48.72143 -123.10939 9916 ft 81 kts 60°
2026-05-03 21:32 48.72467 -123.10176 10072 ft 91 kts 60°
2026-05-03 21:32 48.72833 -123.09301 10273 ft 106 kts 58°
2026-05-03 21:33 48.73255 -123.08285 10482 ft 122 kts 58°
2026-05-03 21:33 48.73737 -123.07134 10689 ft 136 kts 58°
2026-05-03 21:33 48.74266 -123.05870 10894 ft 147 kts 57°
2026-05-03 21:33 48.74823 -123.04536 11091 ft 155 kts 57°
2026-05-03 21:34 48.75413 -123.03121 11294 ft 161 kts 57°
2026-05-03 21:34 48.76010 -123.01690 11548 ft 161 kts 57°
2026-05-03 21:34 48.76609 -123.00255 11800 ft 161 kts 57°